Time,TemperatureF,DewpointF,PressureIn,WindDirection,WindDirectionDegrees,WindSpeedMPH,WindSpeedGustMPH,Humidity,HourlyPrecipIn,Conditions,Clouds,dailyrainin,SoftwareType,DateUTC
2013-11-14 05:52:00,60.0,46.0,29.98,West,262,0.0,-999.0,59,-99.99,,,-99.99,,2013-11-14 13:52:00,
2013-11-14 08:52:00,63.0,47.0,29.99,NE,51,1.0,-999.0,56,-99.99,,,-99.99,,2013-11-14 16:52:00,
2013-11-14 09:22:00,62.0,51.0,29.98,NE,56,0.0,-999.0,68,-99.99,,,-99.99,,2013-11-14 17:22:00,
2013-11-14 09:42:00,61.0,51.0,29.99,ENE,57,0.0,-999.0,69,-99.99,,,-99.99,,2013-11-14 17:42:00,
2013-11-14 09:52:00,61.0,51.0,29.99,ENE,71,0.0,-999.0,70,-99.99,,,-99.99,,2013-11-14 17:52:00,
2013-11-14 10:21:00,60.0,52.0,29.98,ESE,111,1.0,-999.0,75,-99.99,,,-99.99,,2013-11-14 18:21:00,
2013-11-14 10:52:00,62.0,52.0,29.99,South,175,2.0,-999.0,70,-99.99,,,-99.99,,2013-11-14 18:52:00,
2013-11-14 11:21:00,67.0,53.0,29.97,South,169,2.0,-999.0,60,-99.99,,,-99.99,,2013-11-14 19:21:00,
2013-11-14 11:42:00,67.0,53.0,29.96,SE,144,1.0,-999.0,60,-99.99,,,-99.99,,2013-11-14 19:42:00,
2013-11-14 11:52:00,67.0,52.0,29.96,SE,146,0.0,-999.0,59,-99.99,,,-99.99,,2013-11-14 19:52:00,
2013-11-14 12:12:00,69.0,52.0,29.94,SSE,149,1.0,-999.0,55,-99.99,,,-99.99,,2013-11-14 20:12:00,
2013-11-14 12:22:00,70.0,52.0,29.93,SSE,148,0.0,-999.0,53,-99.99,,,-99.99,,2013-11-14 20:22:00,
2013-11-14 12:52:00,68.0,52.0,29.92,SE,138,1.0,-999.0,56,-99.99,,,-99.99,,2013-11-14 20:52:00,
2013-11-14 13:22:00,68.0,51.0,29.91,ESE,108,1.0,-999.0,55,-99.99,,,-99.99,,2013-11-14 21:22:00,
2013-11-14 13:43:00,68.0,52.0,29.91,SE,142,1.0,-999.0,56,-99.99,,,-99.99,,2013-11-14 21:43:00,
2013-11-14 13:53:00,66.0,52.0,29.90,SSE,151,1.0,-999.0,60,-99.99,,,-99.99,,2013-11-14 21:53:00,
2013-11-14 14:23:00,68.0,52.0,29.89,SSE,148,1.0,-999.0,57,-99.99,,,-99.99,,2013-11-14 22:23:00,
2013-11-14 14:53:00,69.0,52.0,29.88,SSE,153,0.0,-999.0,55,-99.99,,,-99.99,,2013-11-14 22:53:00,
2013-11-14 15:22:00,67.0,52.0,29.86,South,171,2.0,-999.0,59,-99.99,,,-99.99,,2013-11-14 23:22:00,
2013-11-14 15:52:00,67.0,51.0,29.87,SSW,200,2.0,-999.0,57,-99.99,,,-99.99,,2013-11-14 23:52:00,
2013-11-14 16:11:00,67.0,51.0,29.85,SSW,209,1.0,-999.0,57,-99.99,,,-99.99,,2013-11-15 00:11:00,
2013-11-14 16:21:00,67.0,50.0,29.85,WSW,254,1.0,-999.0,55,-99.99,,,-99.99,,2013-11-15 00:21:00,
2013-11-14 16:52:00,65.0,45.0,29.85,North,355,2.0,-999.0,49,-99.99,,,-99.99,,2013-11-15 00:52:00,
2013-11-14 17:22:00,66.0,45.0,29.85,NW,308,3.0,-999.0,46,-99.99,,,-99.99,,2013-11-15 01:22:00,
2013-11-14 17:42:00,65.0,44.0,29.84,North,350,4.0,-999.0,46,-99.99,,,-99.99,,2013-11-15 01:42:00,
2013-11-14 17:52:00,64.0,44.0,29.84,North,355,3.0,-999.0,48,-99.99,,,-99.99,,2013-11-15 01:52:00,
2013-11-14 18:22:00,63.0,44.0,29.85,North,5,3.0,-999.0,50,-99.99,,,-99.99,,2013-11-15 02:22:00,
2013-11-14 18:42:00,61.0,45.0,29.85,NNW,344,6.0,-999.0,56,-99.99,,,-99.99,,2013-11-15 02:42:00,
2013-11-14 18:52:00,59.0,46.0,29.85,NNW,342,4.0,-999.0,62,-99.99,,,-99.99,,2013-11-15 02:52:00,
2013-11-14 19:21:00,56.0,46.0,29.85,NNW,348,7.0,-999.0,69,-99.99,,,-99.99,,2013-11-15 03:21:00,
2013-11-14 19:44:00,56.0,46.0,29.85,NNW,332,7.0,-999.0,70,-99.99,,,-99.99,,2013-11-15 03:44:00,
2013-11-14 19:54:00,56.0,44.0,29.84,NW,322,6.0,-999.0,64,-99.99,,,-99.99,,2013-11-15 03:54:00,
2013-11-14 20:14:00,57.0,42.0,29.84,North,360,3.0,-999.0,58,-99.99,,,-99.99,,2013-11-15 04:14:00,
2013-11-14 20:23:00,60.0,38.0,29.84,WNW,294,3.0,-999.0,44,-99.99,,,-99.99,,2013-11-15 04:23:00,
2013-11-14 20:42:00,61.0,40.0,29.84,North,360,2.0,-999.0,45,-99.99,,,-99.99,,2013-11-15 04:42:00,
2013-11-14 20:53:00,59.0,39.0,29.84,NNW,340,6.0,-999.0,47,-99.99,,,-99.99,,2013-11-15 04:53:00,
2013-11-14 21:22:00,59.0,40.0,29.83,North,360,3.0,-999.0,49,-99.99,,,-99.99,,2013-11-15 05:22:00,
2013-11-14 21:53:00,57.0,42.0,29.84,North,360,4.0,-999.0,58,-99.99,,,-99.99,,2013-11-15 05:53:00,
2013-11-14 22:23:00,58.0,42.0,29.83,NNW,347,4.0,-999.0,56,-99.99,,,-99.99,,2013-11-15 06:23:00,
2013-11-14 22:43:00,58.0,43.0,29.83,NE,38,5.0,-999.0,57,-99.99,,,-99.99,,2013-11-15 06:43:00,
2013-11-14 22:53:00,57.0,43.0,29.83,North,360,4.0,-999.0,59,-99.99,,,-99.99,,2013-11-15 06:53:00,
2013-11-14 23:21:00,58.0,43.0,29.83,North,5,4.0,-999.0,57,-99.99,,,-99.99,,2013-11-15 07:21:00,
2013-11-14 23:42:00,58.0,43.0,29.83,North,355,5.0,-999.0,57,-99.99,,,-99.99,,2013-11-15 07:42:00,
2013-11-14 23:52:00,58.0,43.0,29.82,NNE,13,5.0,-999.0,57,-99.99,,,-99.99,,2013-11-15 07:52:00,